Wright-Patt AFB, OH

2:56 PM EDT on July 24, 2017 (GMT -0400)
Wright-Patterson Air Force Base

Weather History for KFFO - September, 2013

Change the Weather History Date:

Wednesday, September 4, 2013

  Actual Average Record
Temperature  
Mean Temperature 66 °F -  
Max Temperature 82 °F 79 °F 91 °F (1999)
Min Temperature 52 °F 57 °F 42 °F (1997)
Cooling Degree Days 2    
Growing Degree Days 16 (Base 50)    
Moisture  
Dew Point 55 °F    
Average Humidity 69    
Maximum Humidity 95    
Minimum Humidity 40    
Precipitation  
Precipitation 0.00 in - - ()
Sea Level Pressure  
Sea Level Pressure 30.13 in    
Wind  
Wind Speed 3 mph (SSW)    
Max Wind Speed 9 mph    
Max Gust Speed -    
Visibility 10 miles    
Events      
Averages and records for this station are not official NWS values.
T = Trace of Precipitation, MM = Missing Value Source: NWS Daily Summary

Daily Weather History Graph

Daily Weather History Graph

Search for Another Location

Airport or City:

Trip Planner

Search our weather history database for the weather conditions in past years. The results will help you decide how hot, cold, wet, or windy it might be!

Date:

Astronomy

Sep. 04, 2013 Rise Set
Actual Time 7:07 AM EDT 8:02 PM EDT
Civil Twilight 6:39 AM EDT 8:29 PM EDT
Nautical Twilight 6:06 AM EDT 9:02 PM EDT
Astronomical Twilight 5:32 AM EDT 9:36 PM EDT
Moon 6:18 AM EDT (9/4) 7:21 PM EDT (9/4)
Length of Visible Light 13h 50m
Length of Day
12h 55m
Waning Crescent, 1% of the Moon is Illuminated
Sep 4
Waning Crescent
Sep 5
New
Sep 12
First Quarter
Sep 19
Full
Sep 26
Last Quarter

Hourly Weather History & Observations

Time (EDT) Temp. Heat Index Dew Point Humidity Pressure Visibility Wind Dir Wind Speed Gust Speed Precip Events Conditions
12:58 AM 58.6 °F - 53.8 °F 84% 30.09 in 10.0 mi East 2.3 mph - N/A   Clear
1:58 AM 57.4 °F - 53.2 °F 86% 30.09 in 10.0 mi ESE 2.3 mph - N/A   Clear
2:58 AM 54.3 °F - 51.4 °F 90% 30.11 in 10.0 mi Calm Calm - N/A   Clear
3:58 AM 52.0 °F - 50.5 °F 95% 30.12 in 10.0 mi SSW 2.3 mph - N/A   Clear
4:58 AM 54.0 °F - 51.6 °F 92% 30.12 in 10.0 mi East 2.3 mph - N/A   Clear
5:58 AM 52.7 °F - 50.5 °F 92% 30.12 in 10.0 mi East 1.2 mph - N/A   Clear
6:58 AM 52.7 °F - 50.9 °F 94% 30.13 in 10.0 mi East 1.2 mph - N/A   Clear
7:58 AM 52.5 °F - 50.9 °F 94% 30.15 in 10.0 mi Calm Calm - N/A   Clear
8:58 AM 59.0 °F - 54.9 °F 86% 30.16 in 10.0 mi Calm Calm - N/A   Clear
9:58 AM 64.9 °F - 57.6 °F 77% 30.17 in 10.0 mi Variable 1.2 mph - N/A   Clear
10:58 AM 70.2 °F - 57.4 °F 64% 30.16 in 10.0 mi West 2.3 mph - N/A   Clear
11:58 AM 73.8 °F - 56.8 °F 55% 30.16 in 10.0 mi SSW 2.3 mph - N/A   Clear
12:13 PM 75.2 °F - 57.2 °F 53% 30.15 in 10.0 mi Variable 1.2 mph - N/A   Light Drizzle
12:22 PM 75.2 °F - 57.2 °F 53% 30.15 in 10.0 mi Variable 3.5 mph - N/A   Clear
12:58 PM 76.1 °F - 56.5 °F 50% 30.14 in 10.0 mi SW 8.1 mph - 0.00 in   Clear
1:58 PM 77.9 °F - 55.8 °F 46% 30.13 in 10.0 mi SW 8.1 mph - N/A   Clear
2:58 PM 80.1 °F 80.4 °F 56.8 °F 45% 30.12 in 10.0 mi SSW 6.9 mph - N/A   Clear
3:58 PM 81.7 °F 81.2 °F 55.4 °F 40% 30.11 in 10.0 mi West 9.2 mph - N/A   Clear
4:58 PM 81.9 °F 81.3 °F 55.0 °F 40% 30.11 in 10.0 mi West 5.8 mph - N/A   Clear
5:58 PM 80.6 °F 80.5 °F 55.4 °F 42% 30.11 in 10.0 mi WSW 5.8 mph - N/A   Clear
6:58 PM 80.1 °F 80.4 °F 56.7 °F 45% 30.10 in 10.0 mi SW 8.1 mph - N/A   Clear
7:58 PM 74.8 °F - 56.7 °F 53% 30.09 in 10.0 mi WSW 5.8 mph - N/A   Clear
8:58 PM 73.0 °F - 56.8 °F 57% 30.12 in 10.0 mi West 3.5 mph - N/A   Clear
9:58 PM 65.5 °F - 58.5 °F 78% 30.13 in 10.0 mi SSW 3.5 mph - N/A   Clear
10:58 PM 63.3 °F - 58.3 °F 84% 30.13 in 10.0 mi Calm Calm - N/A   Clear
11:58 PM 60.3 °F - 57.4 °F 90% 30.13 in 10.0 mi SW 3.5 mph - N/A   Clear